Terminal Aerodrome Forecast
Issued by NWS Charleston, WV

Current Version | Previous Version | Graphics & Text | Print | Product List | Glossary On
Versions: 1 2 3 4 5 6 7 8 9 10 11 12 13 14 15 16 17 18 19 20 21 22 23 24 25
000
FTUS41 KRLX 040901 AAA
TAFEKN
TAF AMD
KEKN 040901Z 0409/0506 00000KT 4SM SHRA BR OVC030
     FM041000 00000KT 1SM BR BKN010
     FM041300 VRB03KT 3SM BR OVC010
     FM041400 28004KT P6SM BKN010
     FM041600 29004KT P6SM BKN015
     FM050000 00000KT P6SM SCT030
     FM050200 00000KT 3SM BR SCT035=

USA.gov is the U.S. government's official web portal to all federal, state and local government web resources and services.